CW5521 Weather Reports


time (UTC)temp
F
wind
direction
speed
knots
gust
knots
rain 1hr
in
rain 24hr
in
rain mn
in
humidity
%
barometer
mb
20260504130745 59 209 0.0 0.0 0.00 0.00 0.00 75 1004.0
20260504081817 55 197 0.0 0.0 0.00 0.00 0.00 71 1005.4
20260504080801 56 197 0.0 0.0 0.00 0.00 0.00 70 1005.4
20260504070409 55 211 0.0 0.0 0.00 0.00 0.00 72 1005.9
20260504050017 58 211 0.0 0.0 0.00 0.00 0.00 67 1007.2
20260504045008 58 211 0.0 0.0 0.00 0.00 0.00 67 1007.2
20260504043950 58 211 0.0 0.0 0.00 0.00 0.00 67 1007.2
20260504043009 58 211 0.0 0.0 0.00 0.00 0.00 67 1007.3
20260504042013 59 211 0.0 0.0 0.00 0.00 0.00 67 1007.3
20260504041021 59 211 0.0 0.0 0.00 0.00 0.00 67 1007.3
20260504040001 59 211 0.0 0.0 0.00 0.00 0.00 67 1007.4
20260504035000 59 211 0.0 0.0 0.00 0.00 0.00 66 1007.4
20260504033932 60 210 0.0 0.0 0.00 0.00 0.00 65 1007.5
20260504032903 60 207 0.0 0.0 0.00 0.00 0.00 65 1007.5
20260504031912 60 215 0.0 0.0 0.00 0.00 0.00 65 1007.6
20260504025745 60 212 0.0 0.0 0.00 0.00 0.00 64 1007.6
20260504023616 61 213 0.0 0.0 0.00 0.00 0.00 63 1007.6
20260504022631 61 215 0.0 0.0 0.00 0.00 0.00 63 1007.6
20260504021554 61 215 0.0 0.0 0.00 0.00 0.00 62 1007.6
20260504020555 62 215 0.0 0.0 0.00 0.00 0.00 62 1007.5
20260504015553 62 215 0.0 0.0 0.00 0.00 0.00 61 1007.5
20260504013442 63 212 0.0 0.0 0.00 0.00 0.00 59 1007.4
20260504012415 64 201 0.0 0.0 0.00 0.00 0.00 58 1007.4
20260504011345 64 214 0.0 0.0 0.00 0.00 0.00 58 1007.2
20260504010347 64 222 0.0 0.0 0.00 0.00 0.00 57 1007.1
20260504005341 65 227 0.0 0.0 0.00 0.00 0.00 56 1007.1
20260504003209 66 220 0.0 0.0 0.00 0.00 0.00 53 1007.2
20260504002229 66 222 0.0 0.0 0.00 0.00 0.00 52 1007.1
20260504001208 67 205 0.0 0.0 0.00 0.00 0.00 52 1007.1
20260504000227 67 225 0.0 0.0 0.00 0.00 0.00 53 1007.2
20260503235235 67 227 0.0 0.0 0.00 0.00 0.00 51 1007.3
20260503234230 67 229 0.0 0.0 0.00 0.00 0.00 52 1007.3
20260503233157 68 225 0.0 0.0 0.00 0.00 0.00 51 1007.4
20260503232156 68 232 0.0 0.0 0.00 0.00 0.00 51 1007.3
20260503231215 67 292 0.0 0.0 0.00 0.00 0.00 51 1007.3
20260503225101 68 228 0.0 0.0 0.00 0.00 0.00 50 1007.5
20260503224116 67 257 0.0 0.0 0.00 0.00 0.00 51 1007.5
20260503223134 67 261 0.0 0.0 0.00 0.00 0.00 50 1007.5
20260503222113 67 288 0.0 0.0 0.00 0.00 0.00 50 1007.6
20260503221116 67 302 0.0 0.0 0.00 0.00 0.00 50 1007.8
20260503220051 67 304 0.0 0.0 0.00 0.00 0.00 50 1007.7
20260503215057 67 301 0.0 0.0 0.00 0.00 0.00 51 1007.8
20260503214023 67 238 0.0 0.0 0.00 0.00 0.00 51 1007.9
20260503213013 66 277 0.0 0.0 0.00 0.00 0.00 50 1008.0
20260503212028 66 246 0.0 0.0 0.00 0.00 0.00 49 1008.0
20260503211045 66 256 0.0 0.0 0.00 0.00 0.00 49 1007.9
20260503210105 66 235 0.0 0.0 0.00 0.00 0.00 49 1008.1
20260503205125 66 246 0.0 0.0 0.00 0.00 0.00 48 1008.1
20260503202930 66 213 0.0 0.0 0.00 0.00 0.00 47 1008.3
20260503195613 67 210 0.0 0.0 0.00 0.00 0.00 45 1008.8
20260503194636 66 241 0.0 0.0 0.00 0.00 0.00 46 1008.6
20260503193620 66 221 0.0 0.0 0.00 0.00 0.00 45 1009.0
20260503192637 66 269 0.0 0.0 0.00 0.00 0.00 43 1009.0
20260503191636 67 223 0.0 0.0 0.00 0.00 0.00 44 1009.2
20260503190635 66 286 0.0 0.0 0.00 0.00 0.00 45 1009.1
20260503185609 66 194 0.0 0.0 0.00 0.00 0.00 44 1009.1
20260503184624 65 228 0.0 0.0 0.00 0.00 0.00 44 1009.2
20260503183600 65 207 0.0 0.0 0.00 0.00 0.00 44 1009.6
20260503182557 65 267 0.0 0.0 0.00 0.00 0.00 44 1009.8
20260503181617 64 161 0.0 0.0 0.00 0.00 0.00 46 1009.8
20260503180607 63 203 0.0 0.0 0.00 0.00 0.00 46 1009.9
20260503175546 62 212 0.0 0.0 0.00 0.00 0.00 47 1010.1
20260503174603 62 167 0.0 0.0 0.00 0.00 0.00 48 1010.2
20260503173548 63 215 0.0 0.0 0.00 0.00 0.00 51 1010.7
20260503172527 60 193 0.0 0.0 0.00 0.00 0.00 51 1011.1
20260503171537 60 197 0.0 0.0 0.00 0.00 0.00 51 1011.5